Location: Unspecified
(0.0000°N, 0.0000°E)
Time: 18:52:33
(UTC+00:00)

UKube-1 - Visible Passes

Search period start: 06 December 2019 00:00
Search period end: 16 December 2019 00:00
Orbit: 612 x 620 km, 98.4° (Epoch: 06 December)

Date Brightness Start Highest point End Pass type
(mag) Time Alt. Az. Time Alt. Az. Time Alt. Az.
06 Dec ? 04:54:08 10° SSE 04:58:22 61° ENE 05:02:34 10° N visible
07 Dec ? 05:10:07 10° S 05:14:24 77° WSW 05:18:39 10° NNW visible
08 Dec ? 05:26:20 10° S 05:30:25 44° WSW 05:34:29 10° NNW visible
09 Dec ? 04:09:01 10° ESE 04:10:44 12° ENE 04:12:29 10° NE visible
10 Dec ? 04:23:35 10° SE 04:26:46 20° ENE 04:29:56 10° NNE visible
11 Dec ? 04:38:54 10° SE 04:42:47 34° ENE 04:46:38 10° NNE visible
12 Dec ? 04:54:36 10° SSE 04:58:49 59° ENE 05:03:01 10° N visible
13 Dec ? 05:10:33 10° S 05:14:50 80° WSW 05:19:06 10° NNW visible
14 Dec ? 05:26:45 10° S 05:30:52 46° WSW 05:34:57 10° NNW visible
15 Dec ? 04:09:39 10° E 04:11:11 12° ENE 04:12:42 10° ENE visible
